This is the latest recevied weather packets stored in our database for station/object IZ1GCT. If no packets are shown the sender has not sent any weather packets the latest 10 day(s).
| Time | Temp. | Humidity | Pressure | Rain* | Wind** | Luminosity | Snow |
|---|---|---|---|---|---|---|---|
| 1777925753 | 10° C | 93% | 1021.3 hPa | 1.52 mm | - | - | - |
| 1777925454 | 10° C | 93% | 1021.3 hPa | 1.52 mm | - | - | - |
| 1777925155 | 10° C | 93% | 1021.3 hPa | 1.52 mm | - | - | - |
| 1777924854 | 10° C | 92% | 1021.4 hPa | 1.27 mm | - | - | - |
| 1777924553 | 10° C | 92% | 1021.4 hPa | 1.27 mm | - | - | - |
| 1777924254 | 10° C | 92% | 1021.3 hPa | 1.27 mm | - | - | - |
| 1777923954 | 10° C | 92% | 1021.2 hPa | 1.02 mm | - | - | - |
| 1777923653 | 10° C | 91% | 1021.2 hPa | 1.02 mm | - | - | - |
| 1777923353 | 10° C | 91% | 1021.2 hPa | 0.51 mm | - | - | - |
| 1777923054 | 10° C | 90% | 1021.1 hPa | 1.02 mm | - | - | - |
| 1777922753 | 10.56° C | 90% | 1021.1 hPa | 0.51 mm | - | - | - |
| 1777922453 | 10.56° C | 90% | 1021 hPa | 1.02 mm | - | - | - |
| 1777922153 | 10.56° C | 89% | 1021.1 hPa | 1.02 mm | - | - | - |
| 1777921853 | 10.56° C | 88% | 1020.9 hPa | 1.27 mm | - | - | - |
| 1777921554 | 10.56° C | 87% | 1020.9 hPa | 1.52 mm | - | - | - |
| 1777921254 | 10.56° C | 86% | 1020.8 hPa | 1.27 mm | - | - | - |
| 1777920953 | 10.56° C | 86% | 1020.7 hPa | 1.52 mm | - | - | - |
| 1777920654 | 10.56° C | 86% | 1020.8 hPa | 1.52 mm | - | - | - |
| 1777920354 | 10.56° C | 87% | 1020.8 hPa | 1.78 mm | - | - | - |
| 1777920053 | 10.56° C | 88% | 1020.8 hPa | 1.78 mm | - | - | - |
| 1777919753 | 10.56° C | 88% | 1020.9 hPa | 2.03 mm | - | - | - |
| 1777919454 | 10.56° C | 87% | 1020.9 hPa | 1.78 mm | - | - | - |
| 1777919154 | 11.11° C | 86% | 1020.9 hPa | 1.78 mm | - | - | - |
| 1777918853 | 11.11° C | 86% | 1020.9 hPa | 1.78 mm | - | - | - |
| 1777918555 | 11.11° C | 86% | 1020.9 hPa | 2.03 mm | - | - | - |
* Rain latest hour (hover to see other rain measurements)
** Current wind speed in m/s (hover to see current wind gust speed)